This is the latest recevied weather packets stored in our database for station/object WI0K. If no packets are shown the sender has not sent any weather packets the latest 10 day(s).
| Time | Temp. | Humidity | Pressure | Rain* | Wind** | Luminosity | Snow |
|---|---|---|---|---|---|---|---|
| 1787959537 | 29.44° C | 30% | 1019.8 hPa | 0 mm | - | 84 W/m² | - |
| 1787959237 | 29.44° C | 30% | 1019.7 hPa | 0 mm | - | 96 W/m² | - |
| 1787958936 | 29.44° C | 29% | 1019.7 hPa | 0 mm | - | 107 W/m² | - |
| 1787958635 | 30° C | 29% | 1019.6 hPa | 0 mm | - | 123 W/m² | - |
| 1787958334 | 30° C | 28% | 1019.5 hPa | 0 mm | - | 150 W/m² | - |
| 1787958034 | 30° C | 28% | 1019.4 hPa | 0 mm | - | 173 W/m² | - |
| 1787957733 | 30.56° C | 29% | 1019.4 hPa | 0 mm | - | 147 W/m² | - |
| 1787957432 | 31.11° C | 28% | 1019.4 hPa | 0 mm | - | 127 W/m² | - |
| 1787957131 | 31.67° C | 24% | 1019.2 hPa | 0 mm | - | 158 W/m² | - |
| 1787956830 | 31.67° C | 23% | 1018.6 hPa | 0 mm | - | 189 W/m² | - |
| 1787956529 | 31.67° C | 23% | 1018.6 hPa | 0 mm | - | 187 W/m² | - |
| 1787956228 | 31.67° C | 23% | 1018.6 hPa | 0 mm | - | 165 W/m² | - |
| 1787955927 | 32.22° C | 22% | 1018.5 hPa | 0 mm | - | 294 W/m² | - |
| 1787955627 | 31.67° C | 23% | 1018.4 hPa | 0 mm | - | 388 W/m² | - |
| 1787955326 | 31.67° C | 23% | 1018.5 hPa | 0 mm | - | 327 W/m² | - |
| 1787955025 | 31.67° C | 27% | 1018.5 hPa | 0 mm | - | 333 W/m² | - |
| 1787954724 | 32.22° C | 23% | 1018.4 hPa | 0 mm | - | 189 W/m² | - |
| 1787954423 | 32.22° C | 21% | 1018.4 hPa | 0 mm | - | 218 W/m² | - |
| 1787954122 | 32.22° C | 24% | 1018.5 hPa | 0 mm | - | 324 W/m² | - |
| 1787953821 | 32.22° C | 22% | 1018.4 hPa | 0 mm | - | 800 W/m² | - |
| 1787953520 | 31.67° C | 22% | 1018.5 hPa | 0 mm | - | 831 W/m² | - |
| 1787953219 | 31.11° C | 23% | 1018.8 hPa | 0 mm | - | 275 W/m² | - |
| 1787952918 | 31.11° C | 23% | 1019.4 hPa | 0 mm | - | 121 W/m² | - |
| 1787952617 | 30.56° C | 25% | 1019.1 hPa | 0 mm | - | 105 W/m² | - |
| 1787952316 | 31.11° C | 26% | 1019.4 hPa | 0 mm | - | 105 W/m² | - |
* Rain latest hour (hover to see other rain measurements)
** Current wind speed in m/s (hover to see current wind gust speed)